Flag for Canada Weather past 2 weeks in Clarington, Ontario, Canada

Now
57 °F

Overcast.


Feels Like: 55 °F
Forecast: 58 / 67 °F
Wind: 10 mph from Northeast

Location: Peterborough Airport

Current Time: Oct 1, 2014 at 12:16:19 AM

Latest Report: Sep 30, 2014 at 11:00 PM


Visibility: 9 mi

Pressure: 30.04 "Hg

Humidity: 88%

Dew point: 54 °F

Location of ClaringtonLocation

Historic Weather in Clarington — Graph

°F

Clarington temperature yesterday

Maximum temperature yesterday: 70 °F (at 2:00 PM)
Minimum temperature yesterday: 54 °F (at 12:46 AM)
Average temperature yesterday: 59 °F

Past Weeks' High & Low Weather Summary

 TemperatureHumidityPressure
High79 °F (Sep 27, 4:00 PM)100% (Sep 16, 12:58 AM)30.54 "Hg (Sep 16, 12:58 AM)
Low34 °F (Sep 19, 5:00 AM)41% (Sep 18, 5:00 PM)29.50 "Hg (Sep 21, 1:00 PM)
Average55 °F84%30.11 "Hg
* Reported Sep 15 11:00 PM — Sep 30 11:00 PM, Clarington, Weather by CustomWeather, © 2014

Note: Actual official high and low records may vary slightly from our data, if they occured in-between our weather recording intervals... More about our weather records

Advertising

Clarington weather history for previous 24 hours

 ConditionsComfort  
Time TempWeatherWind HumidityBarometerVisibility
11:00 PM
Sep 30
57 °FOvercast.10 mph88%30.04 "Hg9 mi
10:00 PM57 °FOvercast.9 mph88%30.03 "Hg9 mi
9:00 PM57 °FClear.7 mph88%30.00 "Hg9 mi
8:00 PM61 °FClear.7 mph83%29.97 "Hg9 mi
7:00 PM64 °FOvercast.6 mph78%29.95 "Hg9 mi
6:00 PM68 °FPartly sunny.6 mph69%29.93 "Hg9 mi
5:00 PM66 °FOvercast.N/A68%29.93 "Hg9 mi
4:00 PM68 °FPartly sunny.10 mph69%29.92 "Hg9 mi
3:00 PM70 °FBroken clouds.9 mph69%29.92 "Hg9 mi
2:00 PM70 °FSunny.5 mph69%29.92 "Hg9 mi
1:00 PM64 °FScattered clouds.2 mph78%29.94 "Hg9 mi
11:00 AM63 °FPartly sunny.7 mph83%29.93 "Hg9 mi
10:00 AM61 °FMostly cloudy.9 mph88%29.93 "Hg9 mi
9:00 AM59 °FBroken clouds.6 mph94%29.92 "Hg9 mi
8:00 AM55 °FPassing clouds.2 mph94%29.91 "Hg8 mi
7:50 AM55 °FFog.2 mph94%29.90 "Hg6 mi
7:04 AM55 °FFog.No wind94%29.89 "Hg6 mi
7:00 AM55 °FFog.No wind100%29.89 "Hg3 mi
6:00 AM55 °FFog.2 mph100%29.89 "Hg4 mi
5:00 AM55 °FFog.2 mph94%29.88 "Hg2 mi
4:54 AM55 °FFog.No wind94%29.88 "Hg2 mi
4:04 AM55 °FFog.2 mph100%29.88 "Hg1 mi
3:45 AM55 °FFog.No wind94%29.88 "Hg1 mi
3:00 AM54 °FFog.2 mph100%29.87 "Hg1 mi
2:00 AM54 °FFog.No wind100%29.88 "Hg3 mi
1:04 AM54 °FFog.2 mph100%29.87 "Hg0 mi
12:46 AM54 °FFog.No wind94%29.88 "Hg1 mi
12:04 AM55 °FFog.No wind94%29.88 "Hg1 mi
Weather by CustomWeather, © 2014

See weather overviewHow to use our weather pages